Total_Precipitation_Accumulation
1.62 1.73 1.84 1.83 1.76 1.75 1.87 2.04 2.19 2.16 1.85 1.55 1.49 1.43 1.38 1.35 1.45 1.23 1.25 1.30 1.22 1.16 1.10 1.07 1.14 1.23 1.31 1.34 1.40 1.49 1.62 1.69 1.71 1.85 2.08 2.31 2.57 2.79
1.36 1.47 1.54 1.53 1.55 1.52 1.57 1.66 1.85 1.99 1.88 1.46 1.32 1.29 1.32 1.20 1.27 1.11 1.15 1.16 1.06 0.98 0.91 0.89 0.90 0.99 1.06 1.06 1.10 1.16 1.31 1.37 1.38 1.42 1.56 1.77 2.02 2.31
1.16 1.15 1.19 1.24 1.33 1.31 1.35 1.42 1.58 1.76 1.82 1.54 1.34 1.28 1.32 1.33 1.32 1.26 1.11 0.97 0.91 0.91 0.84 0.83 0.81 0.83 0.93 0.93 0.93 0.95 1.04 1.14 1.18 1.21 1.25 1.37 1.54 1.74
1.02 1.01 1.00 1.08 1.18 1.20 1.24 1.27 1.38 1.53 1.64 1.63 1.46 1.33 1.29 1.32 1.33 1.33 1.09 0.88 0.82 0.89 0.85 0.79 0.79 0.77 0.83 0.88 0.87 0.86 0.83 0.89 0.93 0.93 0.95 1.06 1.23 1.42
0.94 0.92 0.92 1.01 1.04 1.06 1.10 1.14 1.19 1.21 1.35 1.39 1.26 1.20 1.17 1.19 1.33 1.32 1.23 1.17 0.83 0.77 0.80 0.74 0.76 0.73 0.71 0.74 0.78 0.79 0.74 0.72 0.74 0.77 0.81 0.87 1.00 1.14
0.81 0.82 0.84 0.84 0.86 0.95 0.96 1.05 1.16 1.24 1.29 1.30 1.21 1.10 1.13 1.18 1.41 1.47 1.39 1.23 1.02 0.71 0.72 0.69 0.69 0.69 0.69 0.72 0.69 0.72 0.75 0.74 0.78 0.82 0.84 0.80 0.84 0.88
0.77 0.78 0.75 0.73 0.72 0.76 0.78 0.88 1.05 1.23 1.30 1.34 1.26 1.16 1.15 1.30 1.36 1.32 1.31 1.20 1.04 0.83 0.82 0.75 0.77 0.94 1.15 1.21 1.01 0.79 0.76 0.79 0.86 0.89 0.93 0.87 0.81 0.80
0.78 0.79 0.74 0.67 0.62 0.62 0.60 0.67 0.84 1.04 1.22 1.37 1.33 1.25 1.19 1.28 1.37 1.33 1.39 1.40 1.29 1.00 1.02 0.93 0.93 1.31 1.70 1.89 1.49 0.95 0.82 0.82 0.87 0.92 0.96 0.92 0.82 0.75
0.87 0.85 0.73 0.63 0.69 0.69 0.66 0.63 0.67 0.76 1.02 1.32 1.44 1.32 1.27 1.36 1.49 1.47 1.49 1.52 1.44 1.19 1.24 1.23 1.17 1.45 1.50 1.59 1.53 1.13 1.01 0.97 0.93 0.96 0.99 0.97 0.90 0.80
0.80 0.80 0.86 0.88 0.77 0.70 0.64 0.70 0.79 0.85 0.89 0.98 1.20 1.24 1.13 1.18 1.36 1.42 1.46 1.43 1.36 1.32 1.38 1.47 1.33 1.41 1.33 1.61 1.79 1.62 1.43 1.28 1.18 1.12 1.10 1.02 0.96 0.92
0.65 0.65 0.73 0.79 0.72 0.67 0.69 0.79 0.87 0.93 0.80 0.88 0.97 1.10 1.18 1.11 1.11 1.21 1.43 1.60 1.59 1.41 1.36 1.47 1.47 1.50 1.60 1.88 1.88 1.85 1.76 1.56 1.39 1.24 1.16 1.06 0.98 0.99
0.65 0.68 0.65 0.60 0.60 0.62 0.70 0.87 0.97 0.97 1.02 1.17 1.32 1.42 1.38 1.29 1.16 1.24 1.52 1.72 1.75 1.67 1.39 1.52 1.65 1.76 2.04 2.13 2.01 1.82 1.78 1.74 1.58 1.43 1.30 1.13 0.98 0.92
0.65 0.71 0.68 0.57 0.56 0.56 0.66 0.83 0.98 1.05 1.30 1.59 1.64 1.54 1.45 1.38 1.29 1.27 1.41 1.59 1.75 1.77 1.49 1.65 1.84 2.00 2.23 2.17 1.99 1.87 1.75 1.71 1.71 1.75 1.67 1.42 1.14 1.00
0.72 0.71 0.65 0.59 0.53 0.54 0.64 0.83 0.94 1.17 1.49 1.70 1.60 1.40 1.27 1.20 1.16 1.17 1.24 1.32 1.50 1.57 1.51 1.65 1.99 2.15 2.23 2.09 1.94 1.79 1.75 1.82 1.85 1.90 1.91 1.76 1.45 1.29
0.64 0.67 0.63 0.61 0.61 0.75 0.85 0.98 1.10 1.32 1.57 1.57 1.41 1.28 1.20 1.14 1.07 1.10 1.12 1.17 1.16 1.16 1.15 1.34 1.73 1.99 2.16 2.14 1.96 1.76 1.76 1.99 2.09 2.12 2.05 1.91 1.70 1.48
0.57 0.73 0.81 0.84 0.87 0.99 1.10 1.21 1.31 1.40 1.39 1.33 1.22 1.19 1.12 1.10 1.07 1.06 1.10 1.11 1.16 1.17 1.11 1.18 1.40 1.68 1.88 1.85 1.86 1.82 1.78 2.16 2.34 2.25 2.20 2.18 2.00 1.77
0.54 0.75 0.96 1.03 1.10 1.16 1.17 1.23 1.30 1.27 1.23 1.19 1.16 1.12 1.07 1.06 1.06 1.06 1.13 1.09 1.10 1.12 1.16 1.18 1.26 1.38 1.45 1.51 1.62 1.73 1.82 2.02 2.20 2.19 2.15 2.26 2.20 1.97
0.60 0.84 1.03 1.09 1.12 1.15 1.14 1.16 1.18 1.13 1.08 1.07 1.10 1.08 1.07 1.06 1.08 1.13 1.20 1.18 1.17 1.10 1.11 1.09 1.16 1.28 1.31 1.33 1.51 1.72 1.77 1.95 2.02 1.96 1.84 1.94 2.08 1.89
0.61 0.83 1.02 1.17 1.20 1.11 1.06 1.06 1.10 1.10 1.06 1.06 1.06 1.07 1.04 1.02 1.05 1.10 1.13 1.12 1.11 1.12 1.08 0.99 1.00 1.17 1.32 1.50 1.62 1.82 1.87 1.88 1.82 1.78 1.68 1.57 1.74 1.76
0.69 0.85 0.98 1.05 1.09 1.09 1.01 1.01 1.02 1.03 1.05 1.04 1.02 1.03 1.02 1.00 0.99 1.03 1.05 0.99 0.97 0.99 1.00 0.98 1.00 1.03 1.17 1.38 1.70 1.89 1.81 1.60 1.51 1.58 1.52 1.42 1.56 1.66
0.72 0.80 0.86 0.86 0.83 0.85 0.84 0.84 0.87 0.90 0.91 0.89 0.90 0.93 0.98 0.98 0.97 0.93 0.90 0.82 0.85 0.91 1.00 1.06 1.05 1.00 0.96 1.04 1.33 1.58 1.61 1.56 1.37 1.26 1.23 1.25 1.29 1.29
0.63 0.71 0.76 0.72 0.68 0.67 0.66 0.65 0.67 0.70 0.69 0.69 0.72 0.76 0.82 0.87 0.86 0.81 0.76 0.77 0.83 0.86 0.90 0.92 0.92 0.96 0.98 1.05 1.22 1.41 1.41 1.26 1.19 1.20 1.18 1.05 0.95 1.06
0.56 0.57 0.62 0.65 0.63 0.62 0.59 0.56 0.56 0.56 0.56 0.59 0.63 0.69 0.73 0.75 0.72 0.69 0.68 0.68 0.74 0.76 0.78 0.82 0.86 0.89 0.89 0.89 0.95 1.04 1.04 0.97 0.89 0.92 1.10 1.13 0.96 0.98